RWZ785 OJAQ-OIBQ

Flight info

Callsign RWZ785
Flight time 1h 56m
Altitude 33000
Route TAMIM B411 ASH G669 NANPI DCT IBKUG
Aircraft A320/M-SDE3FGHIRWY/LB1

Departure

Time 2026-04-25 15:52
Airport King Hussein International Airport (OJAQ)

Arrival

Time 2026-04-25 17:48
Airport Khark Airport (OIBQ)
Time Latitude Longitude Altitude Speed Heading
2026-04-25 15:37 29.61075 35.02041 172 ft 0 kts 107°
2026-04-25 15:41 29.61077 35.02032 172 ft 2 kts 107°
2026-04-25 15:41 29.61082 35.02014 172 ft 2 kts 106°
2026-04-25 15:41 29.61087 35.01996 172 ft 2 kts 75°
2026-04-25 15:41 29.61081 35.01979 172 ft 2 kts 46°
2026-04-25 15:42 29.61070 35.01969 172 ft 1 kts 22°
2026-04-25 15:42 29.61069 35.01968 172 ft 0 kts 17°
2026-04-25 15:46 29.61073 35.01969 172 ft 2 kts 17°
2026-04-25 15:46 29.61096 35.01978 172 ft 5 kts 17°
2026-04-25 15:46 29.61126 35.01988 172 ft 0 kts 17°
2026-04-25 15:46 29.61127 35.01989 172 ft 2 kts 17°
2026-04-25 15:47 29.61132 35.01990 172 ft 1 kts 17°
2026-04-25 15:47 29.61162 35.02001 172 ft 7 kts 17°
2026-04-25 15:47 29.61214 35.02020 172 ft 9 kts 17°
2026-04-25 15:47 29.61280 35.02043 172 ft 11 kts 17°
2026-04-25 15:48 29.61360 35.02071 172 ft 13 kts 17°
2026-04-25 15:48 29.61453 35.02103 172 ft 15 kts 17°
2026-04-25 15:48 29.61558 35.02139 172 ft 17 kts 17°
2026-04-25 15:48 29.61668 35.02176 173 ft 15 kts 16°
2026-04-25 15:49 29.61777 35.02214 173 ft 17 kts 18°
2026-04-25 15:49 29.61899 35.02258 173 ft 19 kts 17°
2026-04-25 15:49 29.62031 35.02304 172 ft 21 kts 17°
2026-04-25 15:49 29.62165 35.02351 172 ft 17 kts 17°
2026-04-25 15:50 29.62257 35.02383 172 ft 13 kts 17°
2026-04-25 15:50 29.62344 35.02376 172 ft 14 kts 316°
2026-04-25 15:50 29.62373 35.02284 172 ft 11 kts 277°
2026-04-25 15:50 29.62353 35.02223 172 ft 10 kts 222°
2026-04-25 15:51 29.62283 35.02194 172 ft 12 kts 197°
2026-04-25 15:51 29.62191 35.02162 173 ft 38 kts 197°
2026-04-25 15:51 29.61478 35.01917 173 ft 119 kts 197°
2026-04-25 15:51 29.60540 35.01594 282 ft 151 kts 196°
2026-04-25 15:52 29.59582 35.01253 900 ft 143 kts 201°
2026-04-25 15:52 29.58602 35.00901 1289 ft 149 kts 200°
2026-04-25 15:52 29.57537 35.00536 1588 ft 164 kts 199°
2026-04-25 15:52 29.56437 35.00154 2112 ft 169 kts 197°
2026-04-25 15:53 29.55239 34.99736 2301 ft 191 kts 199°
2026-04-25 15:53 29.54133 34.99344 2475 ft 209 kts 198°
2026-04-25 15:53 29.52703 34.98842 2915 ft 221 kts 199°
2026-04-25 15:53 29.51203 34.98317 3515 ft 229 kts 199°
2026-04-25 15:54 29.49666 34.97781 4242 ft 232 kts 199°
2026-04-25 15:54 29.48115 34.97242 4987 ft 234 kts 199°
2026-04-25 15:54 29.46549 34.96700 5733 ft 237 kts 199°
2026-04-25 15:54 29.44963 34.96148 6474 ft 239 kts 199°
2026-04-25 15:55 29.43894 34.95809 6959 ft 242 kts 192°
2026-04-25 15:55 29.41699 34.96298 7922 ft 250 kts 145°
2026-04-25 15:55 29.40594 34.97820 8672 ft 253 kts 112°
2026-04-25 15:55 29.40038 34.99742 9471 ft 255 kts 107°
2026-04-25 15:56 29.39525 35.01694 10211 ft 257 kts 107°
2026-04-25 15:56 29.39016 35.03644 10906 ft 260 kts 108°
2026-04-25 15:56 29.38491 35.05639 11620 ft 263 kts 108°
2026-04-25 15:56 29.37954 35.07660 12346 ft 267 kts 109°
2026-04-25 15:57 29.37437 35.09713 13083 ft 270 kts 102°
2026-04-25 15:57 29.37532 35.11875 13741 ft 278 kts 71°
2026-04-25 15:57 29.38579 35.13762 14155 ft 292 kts 39°
2026-04-25 15:57 29.40389 35.14859 14490 ft 301 kts 15°
2026-04-25 15:58 29.42415 35.15579 15048 ft 307 kts 14°
2026-04-25 15:58 29.44480 35.16273 15663 ft 311 kts 13°
2026-04-25 15:58 29.46561 35.16964 16326 ft 312 kts 13°
2026-04-25 15:58 29.48654 35.17666 16943 ft 315 kts 14°
2026-04-25 15:59 29.50771 35.18389 17571 ft 319 kts 14°
2026-04-25 15:59 29.52894 35.19176 18178 ft 324 kts 22°
2026-04-25 15:59 29.54741 35.20674 18689 ft 329 kts 49°
2026-04-25 15:59 29.55879 35.22945 19197 ft 330 kts 76°
2026-04-25 16:00 29.56143 35.24655 19519 ft 329 kts 88°
2026-04-25 16:00 29.56252 35.26399 19872 ft 331 kts 89°
2026-04-25 16:00 29.56504 35.30749 21054 ft 325 kts 81°
2026-04-25 16:00 29.57305 35.33215 21313 ft 340 kts 55°
2026-04-25 16:01 29.58998 35.35127 21611 ft 346 kts 28°
2026-04-25 16:01 29.61227 35.36095 22013 ft 343 kts
2026-04-25 16:01 29.63570 35.35997 22461 ft 335 kts 340°
2026-04-25 16:01 29.65649 35.34898 22914 ft 326 kts 317°
2026-04-25 16:02 29.67172 35.33039 23337 ft 317 kts 295°
2026-04-25 16:02 29.67970 35.30721 23746 ft 310 kts 275°
2026-04-25 16:02 29.67984 35.28275 24146 ft 306 kts 256°
2026-04-25 16:02 29.67248 35.25997 24552 ft 305 kts 238°
2026-04-25 16:03 29.65850 35.24161 24949 ft 309 kts 219°
2026-04-25 16:03 29.63945 35.22976 25371 ft 316 kts 204°
2026-04-25 16:03 29.61844 35.22192 25794 ft 322 kts 195°
2026-04-25 16:03 29.59574 35.22129 26178 ft 335 kts 174°
2026-04-25 16:04 29.57363 35.23101 26488 ft 351 kts 151°
2026-04-25 16:04 29.55611 35.25122 26833 ft 368 kts 125°
2026-04-25 16:04 29.54707 35.27917 27101 ft 384 kts 101°
2026-04-25 16:04 29.54401 35.31010 27232 ft 396 kts 97°
2026-04-25 16:05 29.54182 35.34211 27381 ft 408 kts 96°
2026-04-25 16:05 29.53998 35.37501 27510 ft 419 kts 96°
2026-04-25 16:05 29.53613 35.44357 27790 ft 440 kts 96°
2026-04-25 16:06 29.53547 35.47913 27911 ft 452 kts 87°
2026-04-25 16:06 29.54100 35.51500 28068 ft 462 kts 75°
2026-04-25 16:06 29.54955 35.55100 28198 ft 471 kts 75°
2026-04-25 16:06 29.55825 35.58755 28332 ft 479 kts 75°
2026-04-25 16:07 29.56711 35.62475 28463 ft 486 kts 75°
2026-04-25 16:07 29.58502 35.70026 28810 ft 498 kts 75°
2026-04-25 16:07 29.59413 35.73882 29117 ft 501 kts 75°
2026-04-25 16:08 29.60321 35.77739 29578 ft 500 kts 75°
2026-04-25 16:08 29.61215 35.81598 30031 ft 499 kts 76°
2026-04-25 16:08 29.62004 35.85484 30384 ft 500 kts 78°
2026-04-25 16:08 29.62678 35.89410 30714 ft 501 kts 80°
2026-04-25 16:09 29.63276 35.93357 31039 ft 502 kts 81°
2026-04-25 16:09 29.63843 35.97315 31370 ft 503 kts 81°
2026-04-25 16:09 29.64422 36.01287 31703 ft 504 kts 81°
2026-04-25 16:09 29.65029 36.05263 32026 ft 506 kts 80°
2026-04-25 16:10 29.65666 36.09247 32384 ft 507 kts 80°
2026-04-25 16:10 29.66318 36.13222 32715 ft 508 kts 79°
2026-04-25 16:10 29.66983 36.17226 32872 ft 511 kts 79°
2026-04-25 16:11 29.68318 36.25302 32896 ft 515 kts 80°
2026-04-25 16:11 29.69401 36.32037 32898 ft 515 kts 80°
2026-04-25 16:12 29.70683 36.40139 32898 ft 515 kts 80°
2026-04-25 16:12 29.71983 36.48242 32898 ft 514 kts 80°
2026-04-25 16:13 29.73302 36.56332 32900 ft 514 kts 80°
2026-04-25 16:13 29.74617 36.64416 32908 ft 514 kts 80°
2026-04-25 16:14 29.75947 36.72505 32911 ft 513 kts 79°
2026-04-25 16:14 29.77422 36.80554 32917 ft 513 kts 78°
2026-04-25 16:15 29.78937 36.88505 32919 ft 512 kts 78°
2026-04-25 16:15 29.80417 36.96531 32917 ft 512 kts 79°
2026-04-25 16:16 29.81858 37.04547 32923 ft 511 kts 79°
2026-04-25 16:16 29.83297 37.12565 32919 ft 511 kts 79°
2026-04-25 16:17 29.84736 37.20575 32917 ft 510 kts 79°
2026-04-25 16:17 29.86162 37.28579 32916 ft 510 kts 79°
2026-04-25 16:18 29.87583 37.36592 32914 ft 510 kts 79°
2026-04-25 16:18 29.89006 37.44598 32914 ft 510 kts 79°
2026-04-25 16:19 29.90422 37.52551 32920 ft 509 kts 79°
2026-04-25 16:19 29.91836 37.60540 32915 ft 509 kts 79°
2026-04-25 16:20 29.93943 37.72521 32912 ft 508 kts 79°
2026-04-25 16:21 29.96036 37.84501 32912 ft 508 kts 80°
2026-04-25 16:21 29.97423 37.92484 32909 ft 508 kts 80°
2026-04-25 16:22 29.98814 38.00473 32902 ft 508 kts 80°
2026-04-25 16:22 30.00188 38.08411 32900 ft 508 kts 80°
2026-04-25 16:23 30.01565 38.16397 32900 ft 508 kts 80°
2026-04-25 16:23 30.02930 38.24409 32899 ft 508 kts 81°
2026-04-25 16:24 30.04296 38.32420 32897 ft 508 kts 81°
2026-04-25 16:24 30.05661 38.40421 32899 ft 508 kts 81°
2026-04-25 16:25 30.07014 38.48387 32899 ft 509 kts 81°
2026-04-25 16:25 30.08368 38.56410 32899 ft 509 kts 81°
2026-04-25 16:26 30.09714 38.64432 32902 ft 509 kts 81°
2026-04-25 16:26 30.11059 38.72469 32882 ft 511 kts 80°
2026-04-25 16:27 30.11491 38.80616 32894 ft 508 kts 98°
2026-04-25 16:27 30.10036 38.88521 32901 ft 502 kts 111°
2026-04-25 16:28 30.08039 38.96248 32908 ft 503 kts 110°
2026-04-25 16:28 30.06055 39.04002 32910 ft 504 kts 110°
2026-04-25 16:29 30.04062 39.11766 32922 ft 504 kts 111°
2026-04-25 16:29 30.02065 39.19467 32924 ft 505 kts 111°
2026-04-25 16:30 30.00034 39.27220 32930 ft 505 kts 111°
2026-04-25 16:30 29.98002 39.34986 32933 ft 506 kts 111°
2026-04-25 16:31 29.95977 39.42767 32930 ft 507 kts 111°
2026-04-25 16:31 29.93947 39.50552 32934 ft 507 kts 111°
2026-04-25 16:32 29.91908 39.58344 32948 ft 508 kts 111°
2026-04-25 16:32 29.89859 39.66134 32952 ft 508 kts 111°
2026-04-25 16:33 29.87814 39.73867 32956 ft 508 kts 111°
2026-04-25 16:33 29.85748 39.81657 32956 ft 508 kts 111°
2026-04-25 16:34 29.83679 39.89451 32955 ft 509 kts 111°
2026-04-25 16:34 29.81605 39.97248 32957 ft 509 kts 111°
2026-04-25 16:35 29.79551 40.05063 32954 ft 512 kts 108°
2026-04-25 16:35 29.78727 40.13243 32956 ft 518 kts 95°
2026-04-25 16:36 29.78429 40.21525 32957 ft 518 kts 95°
2026-04-25 16:36 29.78098 40.29819 32953 ft 519 kts 95°
2026-04-25 16:37 29.77769 40.38057 32948 ft 519 kts 95°
2026-04-25 16:37 29.77446 40.46369 32943 ft 519 kts 95°
2026-04-25 16:38 29.77115 40.54679 32933 ft 520 kts 95°
2026-04-25 16:38 29.76764 40.62989 32931 ft 520 kts 95°
2026-04-25 16:39 29.76415 40.71291 32927 ft 520 kts 95°
2026-04-25 16:39 29.76074 40.79614 32922 ft 520 kts 95°
2026-04-25 16:40 29.75728 40.87932 32919 ft 520 kts 95°
2026-04-25 16:40 29.75375 40.96250 32882 ft 520 kts 95°
2026-04-25 16:41 29.75015 41.04567 32874 ft 520 kts 95°
2026-04-25 16:41 29.74462 41.17048 32863 ft 521 kts 95°
2026-04-25 16:42 29.74087 41.25307 32857 ft 521 kts 96°
2026-04-25 16:42 29.73700 41.33629 32853 ft 521 kts 96°
2026-04-25 16:43 29.73326 41.41955 32854 ft 521 kts 95°
2026-04-25 16:43 29.72953 41.50278 32859 ft 521 kts 96°
2026-04-25 16:44 29.72570 41.58611 32856 ft 521 kts 96°
2026-04-25 16:44 29.72176 41.66935 32861 ft 521 kts 96°
2026-04-25 16:45 29.71779 41.75196 32860 ft 521 kts 96°
2026-04-25 16:45 29.71382 41.83512 32867 ft 521 kts 96°
2026-04-25 16:46 29.70971 41.91828 32874 ft 520 kts 96°
2026-04-25 16:46 29.70694 41.97380 32874 ft 520 kts 96°
2026-04-25 16:47 29.70122 42.08439 32878 ft 520 kts 96°
2026-04-25 16:47 29.69691 42.16741 32885 ft 520 kts 96°
2026-04-25 16:48 29.69262 42.25042 32892 ft 520 kts 96°
2026-04-25 16:48 29.68822 42.33339 32897 ft 519 kts 96°
2026-04-25 16:49 29.68373 42.41570 32903 ft 519 kts 96°
2026-04-25 16:49 29.67913 42.49846 32905 ft 519 kts 96°
2026-04-25 16:50 29.67522 42.56783 32905 ft 518 kts 96°
2026-04-25 16:50 29.66981 42.66400 32906 ft 518 kts 96°
2026-04-25 16:51 29.66518 42.74673 32908 ft 519 kts 96°
2026-04-25 16:51 29.66205 42.80213 32910 ft 519 kts 96°
2026-04-25 16:52 29.65570 42.91235 32914 ft 520 kts 96°
2026-04-25 16:52 29.65086 42.99533 32917 ft 520 kts 96°
2026-04-25 16:53 29.64349 43.11912 32921 ft 519 kts 97°
2026-04-25 16:54 29.63835 43.20201 32925 ft 519 kts 96°
2026-04-25 16:54 29.63336 43.28476 32926 ft 519 kts 96°
2026-04-25 16:55 29.62836 43.36738 32926 ft 518 kts 97°
2026-04-25 16:55 29.62319 43.44998 32927 ft 517 kts 97°
2026-04-25 16:56 29.61706 43.53227 32927 ft 516 kts 100°
2026-04-25 16:56 29.60637 43.61362 32931 ft 514 kts 103°
2026-04-25 16:57 29.59380 43.69429 32931 ft 513 kts 103°
2026-04-25 16:57 29.58202 43.77513 32940 ft 513 kts 103°
2026-04-25 16:58 29.57111 43.85560 32944 ft 513 kts 102°
2026-04-25 16:58 29.56026 43.93663 32942 ft 512 kts 103°
2026-04-25 16:59 29.54908 44.01740 32943 ft 512 kts 103°
2026-04-25 16:59 29.53769 44.09810 32940 ft 512 kts 103°
2026-04-25 17:00 29.52634 44.17877 32939 ft 512 kts 103°
2026-04-25 17:00 29.51502 44.25942 32929 ft 511 kts 103°
2026-04-25 17:01 29.50368 44.34003 32927 ft 511 kts 103°
2026-04-25 17:01 29.49237 44.42059 32928 ft 512 kts 103°
2026-04-25 17:02 29.48111 44.50069 32932 ft 512 kts 104°
2026-04-25 17:02 29.46967 44.58124 32937 ft 512 kts 104°
2026-04-25 17:03 29.45820 44.66193 32926 ft 512 kts 104°
2026-04-25 17:03 29.44670 44.74251 32931 ft 512 kts 104°
2026-04-25 17:04 29.43512 44.82319 32940 ft 512 kts 104°
2026-04-25 17:04 29.42349 44.90383 32939 ft 512 kts 104°
2026-04-25 17:05 29.41187 44.98446 32935 ft 513 kts 104°
2026-04-25 17:05 29.39434 45.10550 32949 ft 513 kts 104°
2026-04-25 17:06 29.38259 45.18624 32948 ft 513 kts 105°
2026-04-25 17:06 29.37062 45.26701 32956 ft 514 kts 105°
2026-04-25 17:07 29.35863 45.34777 32955 ft 514 kts 105°
2026-04-25 17:07 29.34670 45.42849 32957 ft 514 kts 105°
2026-04-25 17:08 29.33675 45.49562 32959 ft 514 kts 105°
2026-04-25 17:08 29.32469 45.57633 32955 ft 515 kts 105°
2026-04-25 17:09 29.31259 45.65718 32952 ft 515 kts 105°
2026-04-25 17:09 29.30044 45.73810 32952 ft 515 kts 105°
2026-04-25 17:10 29.28818 45.81906 32956 ft 516 kts 105°
2026-04-25 17:10 29.27588 45.90002 32955 ft 516 kts 105°
2026-04-25 17:11 29.26350 45.98110 32952 ft 517 kts 105°
2026-04-25 17:11 29.25105 46.06212 32953 ft 517 kts 105°
2026-04-25 17:12 29.23853 46.14323 32965 ft 517 kts 105°
2026-04-25 17:12 29.22598 46.22441 32966 ft 518 kts 105°
2026-04-25 17:13 29.21552 46.29189 32978 ft 518 kts 105°
2026-04-25 17:13 29.20090 46.38641 32980 ft 519 kts 106°
2026-04-25 17:14 29.18820 46.46771 32973 ft 519 kts 106°
2026-04-25 17:14 29.17537 46.54902 32987 ft 519 kts 106°
2026-04-25 17:15 29.16408 46.63086 32989 ft 525 kts 98°
2026-04-25 17:15 29.16728 46.71488 32988 ft 531 kts 88°
2026-04-25 17:16 29.17325 46.79905 32990 ft 531 kts 89°
2026-04-25 17:16 29.17897 46.88339 32995 ft 531 kts 89°
2026-04-25 17:17 29.18464 46.96753 33001 ft 530 kts 89°
2026-04-25 17:17 29.19035 47.05117 33009 ft 530 kts 89°
2026-04-25 17:18 29.19615 47.13514 33005 ft 529 kts 89°
2026-04-25 17:18 29.20190 47.21910 33018 ft 528 kts 89°
2026-04-25 17:19 29.20752 47.30287 33036 ft 528 kts 89°
2026-04-25 17:19 29.21308 47.38667 33046 ft 528 kts 89°
2026-04-25 17:20 29.21853 47.47046 33042 ft 528 kts 89°
2026-04-25 17:20 29.22382 47.55382 33045 ft 528 kts 89°
2026-04-25 17:21 29.22921 47.63813 33041 ft 528 kts 89°
2026-04-25 17:21 29.23459 47.72148 33031 ft 527 kts 89°
2026-04-25 17:22 29.23902 47.79109 33012 ft 526 kts 89°
2026-04-25 17:22 29.24513 47.88860 33012 ft 525 kts 89°
2026-04-25 17:23 29.24728 47.97168 33014 ft 518 kts 99°
2026-04-25 17:23 29.23908 48.05348 33025 ft 517 kts 101°
2026-04-25 17:24 29.23090 48.13471 33012 ft 516 kts 100°
2026-04-25 17:24 29.22281 48.21634 33000 ft 516 kts 100°
2026-04-25 17:25 29.21456 48.29794 32997 ft 516 kts 101°
2026-04-25 17:25 29.20614 48.37955 32997 ft 516 kts 101°
2026-04-25 17:26 29.19770 48.46118 32636 ft 514 kts 100°
2026-04-25 17:26 29.19350 48.50179 32022 ft 515 kts 100°
2026-04-25 17:26 29.18924 48.54262 31478 ft 516 kts 100°
2026-04-25 17:27 29.18495 48.58334 30954 ft 516 kts 100°
2026-04-25 17:27 29.18066 48.62418 30432 ft 516 kts 99°
2026-04-25 17:27 29.17641 48.66486 29890 ft 515 kts 99°
2026-04-25 17:27 29.17502 48.67809 29702 ft 515 kts 99°
2026-04-25 17:28 29.16790 48.74577 28791 ft 515 kts 99°
2026-04-25 17:28 29.16358 48.78646 27924 ft 516 kts 99°
2026-04-25 17:28 29.15927 48.82719 26980 ft 515 kts 99°
2026-04-25 17:28 29.15499 48.86775 26196 ft 511 kts 99°
2026-04-25 17:29 29.15071 48.90788 25467 ft 505 kts 99°
2026-04-25 17:29 29.14643 48.94750 24770 ft 500 kts 99°
2026-04-25 17:29 29.14220 48.98674 24098 ft 495 kts 99°
2026-04-25 17:29 29.13805 49.02557 23462 ft 489 kts 99°
2026-04-25 17:30 29.13395 49.06382 22886 ft 480 kts 99°
2026-04-25 17:30 29.12990 49.10140 22263 ft 472 kts 99°
2026-04-25 17:30 29.12591 49.13814 21939 ft 459 kts 99°
2026-04-25 17:30 29.12201 49.17398 21477 ft 451 kts 99°
2026-04-25 17:31 29.11818 49.20925 20998 ft 444 kts 99°
2026-04-25 17:31 29.11438 49.24412 20514 ft 439 kts 98°
2026-04-25 17:31 29.11062 49.27852 20048 ft 434 kts 98°
2026-04-25 17:31 29.10690 49.31262 19588 ft 429 kts 98°
2026-04-25 17:32 29.10323 49.34636 19152 ft 424 kts 98°
2026-04-25 17:32 29.09963 49.37916 18720 ft 420 kts 98°
2026-04-25 17:32 29.09594 49.41208 18277 ft 415 kts 98°
2026-04-25 17:32 29.09229 49.44463 17736 ft 411 kts 98°
2026-04-25 17:33 29.08970 49.47703 17195 ft 407 kts 90°
2026-04-25 17:33 29.09217 49.50909 16982 ft 406 kts 79°
2026-04-25 17:33 29.09971 49.54018 16943 ft 404 kts 69°
2026-04-25 17:33 29.11175 49.56896 16387 ft 399 kts 57°
2026-04-25 17:34 29.12828 49.59413 15811 ft 394 kts 47°
2026-04-25 17:34 29.14608 49.61747 15472 ft 385 kts 47°
2026-04-25 17:34 29.16339 49.64048 15042 ft 378 kts 47°
2026-04-25 17:34 29.18036 49.66325 14570 ft 374 kts 48°
2026-04-25 17:35 29.19714 49.68585 14088 ft 371 kts 48°
2026-04-25 17:35 29.21357 49.70799 13593 ft 368 kts 48°
2026-04-25 17:35 29.23006 49.73023 13044 ft 365 kts 47°
2026-04-25 17:35 29.24645 49.75228 12548 ft 362 kts 47°
2026-04-25 17:36 29.26269 49.77408 12037 ft 359 kts 47°
2026-04-25 17:36 29.27888 49.79580 11521 ft 357 kts 47°
2026-04-25 17:36 29.29496 49.81740 11028 ft 355 kts 47°
2026-04-25 17:36 29.31075 49.83866 10723 ft 347 kts 47°
2026-04-25 17:37 29.32577 49.85894 10317 ft 344 kts 48°
2026-04-25 17:37 29.33883 49.88177 9905 ft 344 kts 64°
2026-04-25 17:37 29.34521 49.90800 9453 ft 343 kts 84°
2026-04-25 17:37 29.34347 49.93497 9084 ft 337 kts 103°
2026-04-25 17:38 29.33821 49.96103 8700 ft 334 kts 104°
2026-04-25 17:38 29.33469 49.97815 8412 ft 333 kts 104°
2026-04-25 17:38 29.32758 50.01252 7864 ft 330 kts 104°
2026-04-25 17:38 29.32229 50.03803 7463 ft 328 kts 103°
2026-04-25 17:39 29.31706 50.06299 7077 ft 326 kts 103°
2026-04-25 17:39 29.31182 50.08785 6920 ft 315 kts 103°
2026-04-25 17:39 29.30680 50.11183 6799 ft 304 kts 103°
2026-04-25 17:39 29.30195 50.13501 6688 ft 294 kts 103°
2026-04-25 17:40 29.29726 50.15742 6537 ft 286 kts 103°
2026-04-25 17:40 29.29265 50.17955 6218 ft 285 kts 103°
2026-04-25 17:40 29.28800 50.20185 5791 ft 288 kts 103°
2026-04-25 17:40 29.28334 50.22415 5482 ft 286 kts 102°
2026-04-25 17:41 29.27873 50.24620 5198 ft 284 kts 102°
2026-04-25 17:41 29.27418 50.26788 4865 ft 273 kts 102°
2026-04-25 17:41 29.26988 50.28818 4745 ft 252 kts 102°
2026-04-25 17:41 29.26591 50.30695 4620 ft 232 kts 102°
2026-04-25 17:42 29.26225 50.32446 4316 ft 222 kts 102°
2026-04-25 17:42 29.25886 50.34152 3969 ft 215 kts 101°
2026-04-25 17:42 29.25571 50.35770 3801 ft 204 kts 101°
2026-04-25 17:42 29.25267 50.37338 3606 ft 200 kts 101°
2026-04-25 17:43 29.24969 50.38860 3497 ft 189 kts 102°
2026-04-25 17:43 29.24690 50.40268 3371 ft 178 kts 102°
2026-04-25 17:43 29.24428 50.41597 3246 ft 165 kts 102°
2026-04-25 17:43 29.24066 50.42808 3104 ft 158 kts 120°
2026-04-25 17:44 29.23356 50.43718 2978 ft 151 kts 143°
2026-04-25 17:44 29.22417 50.44233 2747 ft 152 kts 166°
2026-04-25 17:44 29.21366 50.44290 2517 ft 153 kts 188°
2026-04-25 17:44 29.20370 50.43883 2283 ft 153 kts 212°
2026-04-25 17:45 29.19591 50.43060 2052 ft 153 kts 236°
2026-04-25 17:45 29.19402 50.42711 1978 ft 152 kts 244°
2026-04-25 17:45 29.19120 50.40770 1472 ft 149 kts 281°
2026-04-25 17:45 29.19468 50.39701 1330 ft 141 kts 303°
2026-04-25 17:46 29.20101 50.38855 1319 ft 140 kts 317°
2026-04-25 17:46 29.20797 50.38076 1318 ft 139 kts 317°
2026-04-25 17:46 29.21496 50.37294 1165 ft 140 kts 317°
2026-04-25 17:46 29.22189 50.36527 979 ft 138 kts 317°
2026-04-25 17:47 29.22880 50.35763 798 ft 137 kts 317°
2026-04-25 17:47 29.23563 50.35008 624 ft 136 kts 316°
2026-04-25 17:47 29.24244 50.34258 435 ft 136 kts 316°
2026-04-25 17:47 29.24925 50.33513 287 ft 135 kts 317°
2026-04-25 17:48 29.26161 50.32104 136 ft 96 kts 314°
2026-04-25 17:48 29.26508 50.31700 136 ft 47 kts 314°
2026-04-25 17:48 29.26659 50.31522 135 ft 28 kts 314°
2026-04-25 17:49 29.26775 50.31382 135 ft 20 kts 295°
2026-04-25 17:49 29.26776 50.31336 135 ft 3 kts 283°
2026-04-25 17:49 29.26800 50.31338 135 ft 8 kts 31°
2026-04-25 17:49 29.26747 50.31421 134 ft 23 kts 132°
2026-04-25 17:50 29.26607 50.31582 136 ft 30 kts 135°
2026-04-25 17:50 29.26454 50.31754 136 ft 32 kts 132°
2026-04-25 17:50 29.26301 50.31942 136 ft 33 kts 135°
2026-04-25 17:50 29.26131 50.32133 135 ft 35 kts 136°
2026-04-25 17:51 29.25955 50.32337 135 ft 36 kts 134°
2026-04-25 17:51 29.25779 50.32550 136 ft 37 kts 134°
2026-04-25 17:51 29.25594 50.32760 137 ft 37 kts 133°
2026-04-25 17:51 29.25474 50.32904 136 ft 16 kts 135°
2026-04-25 17:52 29.25416 50.32943 135 ft 7 kts 206°
2026-04-25 17:52 29.25411 50.32931 136 ft 5 kts 251°
2026-04-25 17:52 29.25404 50.32844 135 ft 9 kts 311°
2026-04-25 17:52 29.25447 50.32780 136 ft 11 kts 289°
2026-04-25 17:53 29.25457 50.32723 135 ft 3 kts 278°